CW4113 Weather Reports


time (UTC)temp
C
wind
direction
speed
KPH
gust
KPH
rain 1hr
cm
rain 24hr
cm
rain mn
cm
humidity
%
barometer
mb
20260831222805 23 139 4.8 9.7 0.00 0.00 0.00 82 1018.9
20260831222306 23 115 0.0 4.8 0.00 0.00 0.00 82 1018.9
20260831221806 23 115 1.6 4.8 0.00 0.00 0.00 82 1018.9
20260831221305 23 69 1.6 4.8 0.00 0.00 0.00 82 1019.0
20260831220306 23 82 3.2 4.8 0.00 0.00 0.00 82 1019.0
20260831215805 23 122 1.6 3.2 0.00 0.00 0.00 81 1019.1
20260831215306 23 122 1.6 4.8 0.00 0.00 0.00 82 1019.1
20260831214805 23 122 4.8 4.8 0.00 0.00 0.00 80 1019.2
20260831214306 23 132 3.2 4.8 0.00 0.00 0.00 81 1019.3
20260831213806 23 132 3.2 8.0 0.00 0.00 0.00 81 1019.3
20260831213306 23 133 3.2 8.0 0.00 0.00 0.00 81 1019.3
20260831212806 23 100 3.2 8.0 0.00 0.00 0.00 80 1019.2
20260831212306 23 120 3.2 8.0 0.00 0.00 0.00 82 1019.2
20260831211805 23 127 6.4 11.3 0.00 0.00 0.00 82 1019.2
20260831211306 23 134 3.2 8.0 0.00 0.00 0.00 83 1019.3
20260831210805 23 90 1.6 4.8 0.00 0.00 0.00 82 1019.5
20260831210305 23 90 3.2 9.7 0.00 0.00 0.00 83 1019.5
20260831205806 23 70 3.2 4.8 0.00 0.00 0.00 82 1019.5
20260831205306 23 59 1.6 4.8 0.00 0.00 0.00 83 1019.6
20260831204306 23 25 1.6 4.8 0.00 0.00 0.00 82 1019.7
20260831203805 23 54 3.2 4.8 0.00 0.00 0.00 81 1019.8
20260831202805 23 100 3.2 4.8 0.00 0.00 0.00 81 1019.8
20260831202306 23 355 3.2 4.8 0.00 0.00 0.00 82 1019.8
20260831201805 23 355 0.0 4.8 0.00 0.00 0.00 82 1019.9
20260831201305 23 355 3.2 4.8 0.00 0.00 0.00 82 1019.8
20260831200805 23 355 0.0 3.2 0.00 0.00 0.00 83 1019.8
20260831200305 23 355 1.6 4.8 0.00 0.00 0.00 82 1019.8
20260831195805 23 355 1.6 4.8 0.00 0.00 0.00 83 1020.0
20260831194805 23 355 0.0 3.2 0.00 0.00 0.00 84 1019.9
20260831194306 22 355 3.2 4.8 0.00 0.00 0.00 84 1019.9
20260831193805 22 355 0.0 1.6 0.00 0.00 0.00 83 1019.9
20260831193306 22 355 0.0 0.0 0.00 0.00 0.00 81 1020.1
20260831192805 22 355 1.6 3.2 0.00 0.00 0.00 80 1020.3
20260831192306 23 355 0.0 3.2 0.00 0.00 0.00 80 1020.4
20260831191805 23 355 1.6 4.8 0.00 0.00 0.00 80 1020.6
20260831191305 23 355 3.2 4.8 0.00 0.00 0.00 79 1020.5
20260831190805 23 355 1.6 3.2 0.00 0.00 0.00 79 1020.4
20260831190305 23 355 3.2 4.8 0.00 0.00 0.00 79 1020.4
20260831185806 23 355 3.2 4.8 0.00 0.00 0.00 79 1020.4
20260831185306 23 328 3.2 4.8 0.00 0.00 0.00 80 1020.5
20260831184805 23 20 3.2 8.0 0.00 0.00 0.00 79 1020.5
20260831183305 24 344 3.2 8.0 0.00 0.00 0.00 73 1020.5
20260831182805 24 0 0.0 3.2 0.00 0.00 0.00 73 1020.6
20260831182306 24 0 1.6 4.8 0.00 0.00 0.00 71 1020.8
20260831181305 25 337 3.2 4.8 0.00 0.00 0.00 68 1020.7
20260831180305 25 342 4.8 9.7 0.00 0.00 0.00 69 1020.6
20260831175306 25 340 1.6 4.8 0.00 0.00 0.00 69 1020.6
20260831174805 25 219 3.2 8.0 0.00 0.00 0.00 69 1020.6
20260831174305 25 172 1.6 4.8 0.00 0.00 0.00 71 1020.6
20260831173805 25 153 0.0 0.0 0.00 0.00 0.00 73 1020.7
20260831173305 25 153 0.0 4.8 0.00 0.00 0.00 70 1020.6
20260831172805 25 151 1.6 4.8 0.00 0.00 0.00 71 1020.6
20260831172306 24 223 0.0 4.8 0.00 0.00 0.00 72 1020.6
20260831170305 24 5 0.0 1.6 0.00 0.00 0.00 71 1020.7
20260831165805 24 5 0.0 3.2 0.00 0.00 0.00 72 1020.7
20260831164805 24 316 1.6 3.2 0.00 0.00 0.00 70 1020.8
20260831164305 24 234 1.6 4.8 0.00 0.00 0.00 71 1020.8
20260831163806 24 225 1.6 4.8 0.00 0.00 0.00 71 1020.8
20260831162805 24 17 3.2 4.8 0.00 0.00 0.00 69 1020.7
20260831161805 24 344 4.8 4.8 0.00 0.00 0.00 71 1020.8
20260831161306 24 50 1.6 4.8 0.00 0.00 0.00 72 1020.7
20260831160805 23 50 3.2 4.8 0.00 0.00 0.00 71 1020.7
20260831160305 24 50 3.2 4.8 0.00 0.00 0.00 73 1020.7
20260831155806 24 51 3.2 4.8 0.00 0.00 0.00 72 1020.7
20260831155306 24 126 3.2 9.7 0.00 0.00 0.00 69 1020.7
20260831154805 25 79 3.2 4.8 0.00 0.00 0.00 70 1020.7
20260831154305 25 71 3.2 4.8 0.00 0.00 0.00 69 1020.6
20260831153805 24 67 1.6 8.0 0.00 0.00 0.00 72 1020.7
20260831153305 24 88 3.2 4.8 0.00 0.00 0.00 70 1020.8
20260831152804 24 143 3.2 8.0 0.00 0.00 0.00 70 1020.9
20260831152306 24 115 3.2 4.8 0.00 0.00 0.00 69 1020.9
20260831151805 24 71 3.2 4.8 0.00 0.00 0.00 72 1021.0
20260831151304 23 113 4.8 11.3 0.00 0.00 0.00 71 1021.1
20260831150805 23 113 3.2 4.8 0.00 0.00 0.00 73 1021.1
20260831150305 23 133 0.0 3.2 0.00 0.00 0.00 73 1020.9
20260831145805 23 142 0.0 3.2 0.00 0.00 0.00 73 1021.0
20260831145306 23 142 3.2 8.0 0.00 0.00 0.00 74 1021.0
20260831144305 23 76 1.6 4.8 0.00 0.00 0.00 75 1021.2
20260831143805 23 58 1.6 4.8 0.00 0.00 0.00 75 1021.2
20260831142805 22 58 3.2 4.8 0.00 0.00 0.00 76 1021.2
20260831141805 22 59 0.0 0.0 0.00 0.00 0.00 76 1021.3
20260831140805 22 58 1.6 4.8 0.00 0.00 0.00 76 1021.2
20260831140304 22 58 1.6 4.8 0.00 0.00 0.00 78 1021.2
20260831135805 22 59 1.6 3.2 0.00 0.00 0.00 78 1021.2
20260831135306 22 58 3.2 4.8 0.00 0.00 0.00 78 1021.1
20260831134805 22 58 4.8 4.8 0.00 0.00 0.00 77 1021.3
20260831133804 22 65 1.6 4.8 0.00 0.00 0.00 79 1021.1
20260831133305 22 113 1.6 4.8 0.00 0.00 0.00 78 1021.2
20260831132805 22 0 1.6 4.8 0.00 0.00 0.00 78 1021.2
20260831132307 22 76 1.6 4.8 0.00 0.00 0.00 79 1021.0
20260831131804 22 122 3.2 4.8 0.00 0.00 0.00 78 1021.1
20260831130305 22 116 3.2 9.7 0.00 0.00 0.00 80 1020.9
20260831125804 22 71 3.2 9.7 0.00 0.00 0.00 82 1021.0
20260831125306 22 72 4.8 8.0 0.00 0.00 0.00 82 1021.0
20260831124804 22 59 3.2 4.8 0.00 0.00 0.00 82 1021.0
20260831124305 21 59 1.6 3.2 0.00 0.00 0.00 82 1021.0
20260831123804 21 59 1.6 3.2 0.00 0.00 0.00 83 1021.0
20260831123305 21 59 0.0 3.2 0.00 0.00 0.00 83 1020.9
20260831122306 21 59 0.0 1.6 0.00 0.00 0.00 85 1021.0
20260831121805 21 59 0.0 1.6 0.00 0.00 0.00 84 1021.0
20260831121305 21 59 0.0 3.2 0.00 0.00 0.00 85 1021.0
20260831120804 21 69 1.6 4.8 0.00 0.00 0.00 85 1020.9
20260831120305 21 93 0.0 4.8 0.00 0.00 0.00 86 1020.8
20260831115805 21 131 0.0 3.2 0.00 0.00 0.00 86 1020.8
20260831115306 21 131 0.0 3.2 0.00 0.00 0.00 86 1020.8
20260831114805 21 131 1.6 4.8 0.00 0.00 0.00 85 1020.7
20260831114305 21 131 1.6 3.2 0.00 0.00 0.00 86 1020.8
20260831113805 21 131 1.6 4.8 0.00 0.00 0.00 86 1020.6
20260831113304 21 131 1.6 4.8 0.00 0.00 0.00 86 1020.6
20260831112805 21 119 3.2 4.8 0.00 0.00 0.00 85 1020.5
20260831112307 21 150 1.6 4.8 0.00 0.00 0.00 86 1020.6
20260831111805 21 150 1.6 4.8 0.00 0.00 0.00 86 1020.5
20260831111305 21 150 1.6 4.8 0.00 0.00 0.00 86 1020.5
20260831110804 21 150 1.6 4.8 0.00 0.00 0.00 86 1020.5
20260831110305 21 147 3.2 4.8 0.00 0.00 0.00 87 1020.4
20260831105804 20 134 3.2 8.0 0.00 0.00 0.00 87 1020.3
20260831104804 20 139 3.2 8.0 0.00 0.00 0.00 88 1020.1
20260831103805 20 112 1.6 4.8 0.00 0.00 0.00 88 1020.0
20260831103305 20 135 3.2 8.0 0.00 0.00 0.00 89 1019.9
20260831102804 20 255 1.6 3.2 0.00 0.00 0.00 90 1020.0
20260831102306 20 255 1.6 3.2 0.00 0.00 0.00 90 1019.9
20260831101804 20 255 0.0 1.6 0.00 0.00 0.00 90 1019.9
20260831101305 20 255 0.0 1.6 0.00 0.00 0.00 89 1019.8
20260831100805 20 255 0.0 1.6 0.00 0.00 0.00 89 1019.8
20260831100304 20 255 1.6 3.2 0.00 0.00 0.00 89 1019.8
20260831095805 20 255 1.6 3.2 0.00 0.00 0.00 89 1019.6
20260831094305 20 255 0.0 0.0 0.00 0.00 0.00 89 1019.7
20260831093804 20 255 1.6 3.2 0.00 0.00 0.00 89 1019.7
20260831093304 20 255 1.6 1.6 0.00 0.00 0.00 90 1019.6
20260831092805 20 255 1.6 3.2 0.00 0.00 0.00 89 1019.6
20260831092306 20 255 1.6 3.2 0.00 0.00 0.00 90 1019.6
20260831091805 20 255 1.6 3.2 0.00 0.00 0.00 89 1019.6
20260831091304 20 255 0.0 1.6 0.00 0.00 0.00 90 1019.7
20260831090804 20 255 0.0 1.6 0.00 0.00 0.00 89 1019.6
20260831085805 21 255 3.2 4.8 0.00 0.00 0.00 89 1019.6
20260831084805 20 255 0.0 3.2 0.00 0.00 0.00 89 1019.4
20260831084304 20 255 0.0 3.2 0.00 0.00 0.00 89 1019.6
20260831083805 20 255 1.6 3.2 0.00 0.00 0.00 88 1019.7
20260831083304 21 255 3.2 4.8 0.00 0.00 0.00 88 1019.7
20260831082804 21 255 3.2 4.8 0.00 0.00 0.00 88 1019.6
20260831082306 20 255 1.6 3.2 0.00 0.00 0.00 88 1019.6
20260831081804 21 255 1.6 3.2 0.00 0.00 0.00 88 1019.6
20260831081305 21 255 3.2 4.8 0.00 0.00 0.00 88 1019.6
20260831080804 21 255 3.2 4.8 0.00 0.00 0.00 88 1019.5
20260831080304 21 255 0.0 0.0 0.00 0.00 0.00 88 1019.4
20260831075805 21 255 0.0 0.0 0.00 0.00 0.00 88 1019.3
20260831075306 21 255 0.0 0.0 0.00 0.00 0.00 87 1019.3
20260831074804 21 255 0.0 1.6 0.00 0.00 0.00 87 1019.4
20260831073804 21 255 1.6 3.2 0.00 0.00 0.00 87 1019.5
20260831073304 21 255 0.0 3.2 0.00 0.00 0.00 87 1019.4
20260831072805 21 255 0.0 4.8 0.00 0.00 0.00 88 1019.4
20260831072306 21 255 1.6 3.2 0.00 0.00 0.00 88 1019.4
20260831070804 21 255 1.6 3.2 0.00 0.00 0.00 87 1019.5
20260831065805 21 255 0.0 1.6 0.00 0.00 0.00 87 1019.5
20260831065306 21 255 1.6 4.8 0.00 0.00 0.00 87 1019.5
20260831064804 21 255 0.0 3.2 0.00 0.00 0.00 86 1019.6
20260831063804 21 255 1.6 1.6 0.00 0.00 0.00 86 1019.5
20260831063304 21 255 1.6 3.2 0.00 0.00 0.00 85 1019.5
20260831062804 21 255 0.0 3.2 0.00 0.00 0.00 85 1019.6
20260831062306 21 255 1.6 4.8 0.00 0.00 0.00 85 1019.7
20260831061804 21 255 3.2 4.8 0.00 0.00 0.00 85 1019.8
20260831061304 21 255 1.6 4.8 0.00 0.00 0.00 85 1019.9
20260831060304 22 255 0.0 1.6 0.00 0.00 0.00 85 1019.9
20260831055804 22 255 0.0 3.2 0.00 0.00 0.00 84 1019.8
20260831055306 22 255 1.6 3.2 0.00 0.00 0.00 84 1019.7
20260831053304 22 255 1.6 4.8 0.00 0.00 0.00 85 1019.3
20260831052804 22 255 1.6 3.2 0.00 0.00 0.00 85 1019.4
20260831051804 22 255 0.0 1.6 0.00 0.00 0.00 85 1019.3
20260831051304 22 255 3.2 4.8 0.00 0.00 0.00 85 1019.3
20260831050305 22 255 1.6 3.2 0.00 0.00 0.00 86 1019.3
20260831045804 22 255 1.6 4.8 0.00 0.00 0.00 87 1019.4
20260831045306 22 255 1.6 3.2 0.00 0.00 0.00 87 1019.6
20260831044804 22 255 1.6 4.8 0.00 0.00 0.00 87 1019.7
20260831044303 22 255 1.6 3.2 0.00 0.00 0.00 87 1019.6
20260831043804 22 255 1.6 3.2 0.00 0.00 0.00 88 1019.5
20260831042306 22 255 1.6 3.2 0.00 0.00 0.00 87 1019.6
20260831041804 22 255 1.6 3.2 0.00 0.00 0.00 87 1019.6
20260831041304 22 255 1.6 3.2 0.00 0.00 0.00 87 1019.7
20260831040818 22 255 1.6 3.2 0.00 0.00 0.00 86 1019.7
20260831040304 22 255 0.0 0.0 0.00 0.00 0.00 86 1019.7
20260831035804 22 255 0.0 0.0 0.00 0.00 0.00 86 1019.6
20260831035306 22 255 0.0 3.2 0.00 0.00 0.00 86 1019.6
20260831034804 22 255 3.2 4.8 0.00 0.00 0.00 85 1019.7
20260831034304 23 255 3.2 4.8 0.00 0.00 0.00 85 1019.7
20260831033304 23 255 0.0 1.6 0.00 0.00 0.00 85 1019.6
20260831032804 23 255 1.6 4.8 0.00 0.00 0.00 84 1019.8
20260831032306 23 255 3.2 4.8 0.00 0.00 0.00 83 1019.8
20260831031804 23 255 3.2 4.8 0.00 0.00 0.00 82 1019.9
20260831031304 23 255 3.2 4.8 0.00 0.00 0.00 82 1020.0
20260831030803 23 255 3.2 4.8 0.00 0.00 0.00 82 1020.0
20260831030304 23 255 3.2 8.0 0.00 0.00 0.00 83 1020.2
20260831025804 23 219 4.8 8.0 0.00 0.00 0.00 83 1020.1
20260831025306 23 234 6.4 11.3 0.00 0.00 0.00 83 1020.1
20260831024804 23 236 8.0 12.9 0.00 0.00 0.00 83 1020.2
20260831023804 23 223 4.8 8.0 0.00 0.00 0.00 82 1020.1
20260831023303 24 319 4.8 19.3 0.00 0.00 0.00 82 1020.1
20260831022804 23 339 3.2 16.1 0.00 0.00 0.00 82 1020.0
20260831022307 24 226 11.3 19.3 0.00 0.00 0.00 82 1019.9
20260831021804 24 202 9.7 19.3 0.00 0.00 0.00 82 1019.9
20260831021303 24 208 9.7 16.1 0.00 0.00 0.00 82 1019.8
20260831020804 24 208 8.0 14.5 0.00 0.00 0.00 82 1019.8
20260831020303 24 215 8.0 12.9 0.00 0.00 0.00 83 1019.8
20260831015804 24 212 6.4 12.9 0.00 0.00 0.00 82 1019.8
20260831014803 24 218 6.4 14.5 0.00 0.00 0.00 82 1019.8
20260831014304 24 211 6.4 9.7 0.00 0.00 0.00 81 1019.9
20260831013304 25 239 1.6 8.0 0.00 0.00 0.00 81 1019.9
20260831012804 25 250 3.2 8.0 0.00 0.00 0.00 81 1019.9
20260831012307 25 240 4.8 12.9 0.00 0.00 0.00 81 1020.0
20260831011807 25 181 9.7 14.5 0.00 0.00 0.00 81 1019.9
20260831011306 25 190 6.4 12.9 0.00 0.00 0.00 81 1019.9
20260831010806 25 213 4.8 12.9 0.00 0.00 0.00 82 1019.8
20260831010306 24 215 3.2 9.7 0.00 0.00 0.00 81 1019.6
20260831005806 24 190 0.0 4.8 0.00 0.00 0.00 81 1019.6
20260831005306 24 190 3.2 4.8 0.00 0.00 0.00 80 1019.4
20260831004306 24 182 3.2 4.8 0.00 0.00 0.00 80 1019.3
20260831003806 24 182 3.2 4.8 0.00 0.00 0.00 78 1019.2
20260831002807 25 198 3.2 8.0 0.00 0.00 0.00 78 1019.0
20260831002306 25 207 3.2 8.0 0.00 0.00 0.00 78 1019.0
20260831000806 25 195 8.0 11.3 0.00 0.00 0.00 80 1018.9
20260831000306 25 214 8.0 11.3 0.00 0.00 0.00 81 1018.9
20260830235807 24 206 4.8 9.7 0.00 0.00 0.00 82 1018.9
20260830235307 24 190 3.2 8.0 0.00 0.00 0.00 83 1018.9
20260830234806 25 235 1.6 4.8 0.00 0.00 0.00 82 1018.8
20260830234307 25 235 1.6 4.8 0.00 0.00 0.00 82 1018.7
20260830233806 25 235 3.2 4.8 0.00 0.00 0.00 81 1018.8
20260830233306 25 235 1.6 4.8 0.00 0.00 0.00 81 1018.9
20260830232806 25 235 1.6 3.2 0.00 0.00 0.00 80 1018.9
20260830232306 25 235 1.6 3.2 0.00 0.00 0.00 80 1019.0
20260830231806 25 235 3.2 4.8 0.00 0.00 0.00 80 1018.9
20260830230806 25 235 1.6 3.2 0.00 0.00 0.00 79 1019.0
20260830230306 25 235 1.6 3.2 0.00 0.00 0.00 79 1019.0
20260830224306 26 235 1.6 3.2 0.00 0.00 0.00 76 1019.1
20260830223306 26 235 1.6 4.8 0.00 0.00 0.00 73 1018.9